Total_Precipitation_Accumulation
0.22 0.26 0.34 0.40 0.34 0.22 0.07 0.01 0.00 0.01 0.01 0.03 0.02 0.01 0.01 0.02 0.03 0.04 0.03 0.02 0.04 0.07 0.13 0.27 0.39 0.48 0.54 0.58 0.58 0.57 0.58 0.59 0.64 0.67 0.70 0.75 0.78 0.83 0.92 0.96 0.94 0.93 0.98 1.01 1.06 1.06 1.04 1.00 0.92
0.22 0.33 0.44 0.50 0.31 0.13 0.04 0.01 0.01 0.01 0.02 0.03 0.02 0.01 0.01 0.02 0.02 0.03 0.03 0.03 0.04 0.06 0.11 0.22 0.38 0.49 0.57 0.60 0.60 0.59 0.60 0.62 0.67 0.71 0.75 0.78 0.81 0.84 0.91 0.96 0.99 0.95 0.96 1.04 1.04 1.04 1.06 1.04 1.00
0.34 0.47 0.52 0.52 0.30 0.09 0.02 0.01 0.01 0.02 0.03 0.03 0.02 0.02 0.02 0.03 0.03 0.04 0.04 0.04 0.05 0.08 0.12 0.23 0.40 0.52 0.63 0.65 0.64 0.65 0.68 0.71 0.76 0.78 0.82 0.86 0.89 0.91 0.94 0.93 0.93 0.90 0.86 0.89 0.91 0.96 1.05 1.07 1.01
0.52 0.67 0.63 0.49 0.22 0.08 0.02 0.01 0.01 0.02 0.03 0.03 0.01 0.02 0.03 0.03 0.03 0.05 0.04 0.05 0.08 0.12 0.17 0.28 0.45 0.60 0.70 0.73 0.70 0.70 0.76 0.80 0.85 0.90 0.93 0.97 1.04 1.03 1.01 0.96 0.95 0.88 0.84 0.85 0.88 0.93 1.03 1.03 0.97
0.66 0.77 0.67 0.42 0.15 0.05 0.02 0.01 0.02 0.02 0.02 0.03 0.02 0.03 0.03 0.03 0.03 0.05 0.08 0.09 0.11 0.17 0.26 0.35 0.54 0.71 0.79 0.83 0.81 0.80 0.86 0.90 0.94 0.97 1.02 1.06 1.10 1.09 1.04 0.99 0.95 0.94 0.91 0.88 0.90 0.95 1.03 0.99 0.91
0.80 0.82 0.59 0.30 0.10 0.03 0.02 0.01 0.02 0.03 0.03 0.03 0.03 0.04 0.05 0.05 0.06 0.08 0.10 0.11 0.13 0.20 0.31 0.46 0.71 0.82 0.87 0.95 0.97 0.93 0.97 1.03 1.05 1.08 1.14 1.17 1.15 1.14 1.14 1.05 0.96 0.98 0.98 0.93 0.92 0.97 1.01 0.95 0.89
0.84 0.72 0.44 0.21 0.09 0.05 0.04 0.03 0.03 0.04 0.04 0.03 0.03 0.05 0.06 0.08 0.09 0.12 0.13 0.16 0.23 0.32 0.44 0.55 0.76 0.89 0.99 1.10 1.14 1.10 1.12 1.16 1.16 1.21 1.24 1.27 1.25 1.22 1.20 1.13 1.03 1.01 1.00 1.05 1.01 0.96 0.93 0.90 0.86
0.86 0.79 0.43 0.23 0.14 0.09 0.06 0.06 0.05 0.05 0.05 0.06 0.06 0.07 0.07 0.10 0.11 0.17 0.21 0.29 0.36 0.44 0.54 0.67 0.80 0.93 1.04 1.17 1.26 1.30 1.31 1.33 1.38 1.38 1.30 1.28 1.37 1.40 1.34 1.21 1.13 1.08 1.05 1.08 1.10 1.02 0.92 0.87 0.85
0.96 0.96 0.49 0.23 0.17 0.12 0.09 0.10 0.06 0.05 0.07 0.09 0.08 0.07 0.09 0.12 0.17 0.25 0.35 0.45 0.53 0.60 0.68 0.83 0.93 1.02 1.10 1.19 1.28 1.49 1.62 1.64 1.61 1.59 1.46 1.46 1.47 1.45 1.38 1.24 1.18 1.10 1.10 1.07 1.13 1.15 1.06 0.95 0.88
1.06 0.81 0.40 0.20 0.18 0.16 0.13 0.13 0.10 0.10 0.12 0.12 0.12 0.10 0.15 0.21 0.26 0.31 0.36 0.44 0.55 0.61 0.74 0.90 1.08 1.16 1.29 1.32 1.41 1.58 1.69 1.77 1.72 1.48 1.49 1.56 1.46 1.43 1.35 1.33 1.34 1.23 1.19 1.16 1.13 1.17 1.14 1.05 0.90
0.87 0.57 0.30 0.22 0.20 0.22 0.20 0.17 0.14 0.15 0.15 0.14 0.15 0.15 0.20 0.29 0.33 0.37 0.41 0.46 0.56 0.64 0.77 0.93 1.17 1.36 1.45 1.43 1.41 1.49 1.59 1.70 1.74 1.52 1.38 1.43 1.49 1.52 1.53 1.42 1.44 1.41 1.33 1.33 1.25 1.21 1.10 0.99 0.93
0.66 0.43 0.31 0.28 0.25 0.28 0.27 0.23 0.20 0.16 0.13 0.16 0.19 0.19 0.24 0.33 0.38 0.42 0.45 0.48 0.59 0.73 0.84 1.00 1.19 1.41 1.54 1.59 1.54 1.51 1.53 1.59 1.64 1.61 1.54 1.46 1.47 1.43 1.36 1.33 1.25 1.23 1.18 1.19 1.19 1.08 1.01 0.94 0.88
0.53 0.39 0.31 0.30 0.32 0.33 0.34 0.30 0.24 0.15 0.12 0.18 0.24 0.26 0.28 0.33 0.43 0.52 0.55 0.56 0.61 0.74 0.89 1.12 1.29 1.45 1.63 1.75 1.73 1.69 1.64 1.50 1.59 1.70 1.77 1.64 1.49 1.41 1.35 1.28 1.24 1.18 1.12 1.10 1.07 0.99 0.92 0.88 0.84
0.45 0.41 0.34 0.30 0.32 0.37 0.42 0.39 0.32 0.20 0.16 0.25 0.30 0.32 0.35 0.36 0.48 0.59 0.66 0.66 0.64 0.73 0.90 1.19 1.40 1.51 1.69 1.77 1.75 1.74 1.78 1.65 1.69 1.75 1.72 1.79 1.72 1.54 1.51 1.45 1.31 1.23 1.14 1.09 1.07 1.02 0.95 0.90 0.84
0.48 0.56 0.46 0.35 0.33 0.37 0.47 0.53 0.37 0.23 0.24 0.32 0.36 0.39 0.42 0.43 0.51 0.62 0.71 0.75 0.71 0.77 0.94 1.21 1.44 1.62 1.74 1.74 1.79 1.81 1.85 1.85 1.79 1.79 1.78 1.83 1.80 1.75 1.66 1.63 1.51 1.35 1.27 1.23 1.18 1.16 1.09 1.03 0.93
0.72 0.89 0.75 0.43 0.35 0.41 0.59 0.58 0.30 0.25 0.32 0.33 0.41 0.42 0.45 0.44 0.49 0.63 0.79 0.91 0.87 0.91 0.98 1.16 1.43 1.61 1.75 1.81 1.81 1.78 1.88 1.92 1.94 1.95 1.91 1.86 1.91 1.91 1.90 1.78 1.66 1.47 1.45 1.41 1.35 1.27 1.23 1.12 1.02
1.06 1.01 0.71 0.47 0.39 0.47 0.63 0.50 0.27 0.27 0.37 0.40 0.46 0.47 0.48 0.51 0.50 0.59 0.78 0.95 0.97 0.97 1.06 1.20 1.39 1.54 1.69 1.91 1.97 1.85 1.87 1.97 2.05 2.05 2.08 1.95 1.96 2.03 2.07 2.08 1.93 1.75 1.66 1.55 1.44 1.33 1.26 1.20 1.11
0.91 0.72 0.54 0.46 0.43 0.48 0.55 0.43 0.29 0.28 0.37 0.43 0.48 0.51 0.48 0.54 0.51 0.54 0.71 0.95 1.03 1.05 1.13 1.25 1.39 1.56 1.70 1.98 2.14 2.16 2.02 2.03 2.06 2.03 1.98 1.99 1.98 2.01 2.03 2.09 2.14 2.08 1.98 1.83 1.66 1.52 1.35 1.24 1.19
0.58 0.65 0.55 0.38 0.36 0.49 0.50 0.40 0.29 0.28 0.35 0.43 0.47 0.52 0.48 0.52 0.56 0.59 0.69 0.86 1.06 1.10 1.14 1.28 1.34 1.51 1.70 1.87 2.03 2.07 2.06 2.01 2.02 1.96 1.91 1.85 1.87 1.90 1.95 1.90 2.02 2.06 2.00 1.89 1.81 1.71 1.63 1.49 1.36
0.68 0.76 0.60 0.42 0.35 0.53 0.54 0.44 0.31 0.29 0.34 0.43 0.43 0.49 0.53 0.53 0.59 0.66 0.73 0.84 1.07 1.15 1.12 1.23 1.37 1.48 1.55 1.65 1.78 1.88 1.97 2.03 2.04 1.97 2.00 1.90 1.81 1.79 1.88 1.90 1.85 1.87 1.88 1.86 1.79 1.73 1.68 1.62 1.50
0.77 0.68 0.56 0.51 0.48 0.58 0.66 0.62 0.38 0.32 0.30 0.38 0.43 0.49 0.60 0.63 0.64 0.67 0.75 0.84 1.05 1.20 1.20 1.19 1.31 1.47 1.54 1.67 1.85 1.97 2.14 2.19 2.26 2.08 1.97 1.93 1.88 1.76 1.73 1.83 1.86 1.81 1.79 1.77 1.73 1.65 1.59 1.57 1.46
0.82 0.47 0.48 0.55 0.84 0.94 0.81 0.95 0.47 0.34 0.32 0.38 0.45 0.48 0.61 0.65 0.64 0.71 0.73 0.82 0.98 1.10 1.22 1.26 1.38 1.49 1.53 1.71 1.91 1.91 2.04 2.05 2.00 1.90 1.83 1.79 1.82 1.79 1.69 1.68 1.74 1.78 1.73 1.65 1.63 1.64 1.59 1.61 1.60
0.68 0.43 0.55 0.68 0.94 1.11 0.83 0.92 0.53 0.30 0.37 0.39 0.44 0.48 0.57 0.65 0.62 0.69 0.72 0.72 0.84 0.97 1.13 1.23 1.39 1.55 1.58 1.63 1.83 1.90 1.86 1.90 1.96 1.99 1.92 1.84 1.81 1.76 1.70 1.67 1.66 1.65 1.64 1.56 1.54 1.59 1.62 1.63 1.60
0.64 0.74 0.91 1.04 1.48 1.75 0.74 0.72 0.59 0.49 0.58 0.47 0.43 0.49 0.58 0.65 0.66 0.68 0.67 0.66 0.78 0.93 1.08 1.20 1.32 1.45 1.58 1.60 1.71 1.89 1.86 1.82 1.90 2.03 2.07 1.99 1.89 1.81 1.68 1.58 1.59 1.56 1.50 1.48 1.46 1.47 1.47 1.51 1.54
1.02 1.52 2.25 2.40 2.37 1.44 0.41 0.55 0.67 0.53 0.52 0.57 0.55 0.56 0.59 0.62 0.67 0.72 0.62 0.64 0.70 0.83 1.00 1.15 1.30 1.36 1.42 1.50 1.59 1.69 1.83 1.81 1.78 1.80 1.87 2.01 1.98 1.84 1.72 1.64 1.54 1.50 1.44 1.39 1.39 1.43 1.43 1.38 1.41
1.11 1.38 1.84 1.81 1.23 0.57 0.34 0.56 0.60 0.44 0.38 0.39 0.42 0.51 0.55 0.58 0.62 0.66 0.63 0.64 0.67 0.72 0.85 1.02 1.15 1.31 1.43 1.47 1.52 1.58 1.68 1.82 1.75 1.72 1.66 1.76 1.84 1.71 1.60 1.66 1.58 1.49 1.47 1.46 1.43 1.41 1.41 1.42 1.36
0.99 1.09 0.96 1.28 0.91 0.63 0.53 0.49 0.40 0.21 0.22 0.26 0.32 0.43 0.56 0.64 0.66 0.63 0.63 0.67 0.66 0.72 0.78 0.93 1.03 1.18 1.39 1.52 1.53 1.56 1.61 1.69 1.72 1.67 1.66 1.66 1.67 1.67 1.64 1.64 1.63 1.56 1.57 1.61 1.61 1.56 1.45 1.42 1.41
0.77 0.96 1.18 1.65 1.39 0.80 0.51 0.49 0.57 0.40 0.39 0.34 0.36 0.45 0.57 0.67 0.74 0.71 0.66 0.71 0.71 0.72 0.77 0.83 0.98 1.09 1.24 1.45 1.60 1.60 1.56 1.55 1.65 1.70 1.72 1.70 1.66 1.67 1.68 1.68 1.68 1.62 1.55 1.62 1.68 1.63 1.54 1.52 1.47
0.85 1.15 1.45 1.53 1.17 0.95 0.66 0.66 0.69 0.59 0.57 0.50 0.46 0.50 0.59 0.68 0.75 0.70 0.64 0.65 0.70 0.73 0.82 0.85 0.94 1.05 1.16 1.27 1.45 1.56 1.55 1.54 1.60 1.66 1.64 1.67 1.67 1.67 1.64 1.59 1.63 1.68 1.64 1.57 1.63 1.60 1.55 1.56 1.49
0.72 1.00 1.26 1.56 1.15 0.74 0.70 0.68 0.53 0.50 0.53 0.48 0.46 0.47 0.51 0.60 0.66 0.67 0.61 0.62 0.70 0.79 0.85 0.93 0.97 0.96 1.05 1.16 1.28 1.43 1.53 1.54 1.56 1.55 1.60 1.66 1.67 1.66 1.59 1.55 1.56 1.60 1.62 1.58 1.58 1.56 1.52 1.52 1.49